Location: Leeds
(37.2390°N, 113.3580°W)
Time: 18:09:43
(UTC-06:00)

ISS - All Passes

Search period start: 21 September 2014 00:00
Search period end: 01 October 2014 00:00
Orbit: 413 x 417 km, 51.6° (Epoch: 21 September)

Date Brightness Start Highest point End Pass type
(mag) Time Alt. Az. Time Alt. Az. Time Alt. Az.
21 Sep - 01:56:28 10° S 01:59:10 23° SE 02:01:53 10° ENE night (unlit)
21 Sep - 03:32:43 10° W 03:35:46 32° NNW 03:38:48 10° NNE night (unlit)
21 Sep - 08:26:52 10° NNW 08:29:15 18° NNE 08:31:38 10° ENE daylight
21 Sep - 10:02:56 10° WNW 10:06:13 59° SW 10:09:28 10° SE daylight
22 Sep - 01:08:56 10° SSE 01:10:28 13° SE 01:12:00 10° E night (unlit)
22 Sep - 02:43:32 10° WSW 02:46:48 56° NW 02:50:05 10° NE night (unlit)
22 Sep - 04:22:46 10° NW 04:24:06 12° NNW 04:25:26 10° N visible
22 Sep - 07:38:27 10° N 07:40:08 13° NNE 07:41:48 10° NE daylight
22 Sep - 09:14:01 10° NW 09:17:20 71° NE 09:20:38 10° SE daylight
23 Sep - 01:54:34 10° SW 01:57:53 77° SE 02:01:12 10° NE night (unlit)
23 Sep - 03:32:46 10° WNW 03:34:55 16° NNW 03:37:05 10° NNE night (unlit)
23 Sep - 06:50:46 10° NNE 06:50:54 10° NNE 06:51:03 10° NNE visible
23 Sep - 08:25:12 10° NW 08:28:22 39° NE 08:31:30 10° ESE daylight
23 Sep - 10:02:27 10° W 10:04:51 19° SW 10:07:15 10° S daylight
24 Sep - 01:05:53 10° SSW 01:08:59 38° SE 01:12:06 10° ENE night (unlit)
24 Sep - 02:43:03 10° W 02:45:46 23° NNW 02:48:30 10° NNE night (unlit)
24 Sep - 07:36:29 10° NNW 07:39:17 24° NNE 07:42:04 10° E daylight
24 Sep - 09:12:58 10° WNW 09:16:01 34° SW 09:19:04 10° SSE daylight
25 Sep - 00:17:35 10° S 00:20:07 20° SE 00:22:40 10° E night (unlit)
25 Sep - 01:53:33 10° WSW 01:56:39 36° NW 01:59:46 10° NE night (unlit)
25 Sep - 06:47:50 10° NNW 06:50:05 17° NNE 06:52:20 10° ENE visible
25 Sep - 08:23:47 10° NW 08:27:06 69° SW 08:30:23 10° SE daylight
25 Sep - 23:30:19 10° SE 23:31:17 11° SE 23:32:15 10° ESE night (unlit)
26 Sep - 01:04:16 10° WSW 01:07:34 65° NW 01:10:53 10° NE night (unlit)
26 Sep - 02:43:15 10° NW 02:44:48 13° NNW 02:46:21 10° N night (unlit)
26 Sep - 05:59:20 10° N 06:00:48 12° NNE 06:02:16 10° NE visible
26 Sep - 07:34:46 10° NW 07:38:04 61° NE 07:41:21 10° ESE daylight
26 Sep - 09:13:10 10° WSW 09:14:21 12° SW 09:15:32 10° SSW daylight
27 Sep - 00:15:13 10° SW 00:18:30 65° SE 00:21:49 10° NE night (unlit)
27 Sep - 01:53:11 10° WNW 01:55:29 17° NNW 01:57:48 10° NNE night (unlit)
27 Sep - 06:45:50 10° NW 06:48:55 34° NE 06:52:00 10° ESE visible
27 Sep - 08:22:52 10° W 08:25:28 21° SW 08:28:03 10° S daylight
27 Sep - 23:26:28 10° SSW 23:29:29 33° SE 23:32:31 10° ENE night (unlit)
28 Sep - 01:03:23 10° W 01:06:12 25° NNW 01:09:02 10° NNE night (unlit)
28 Sep - 05:56:59 10° NNW 05:59:41 22° NNE 06:02:21 10° E visible
28 Sep - 07:33:20 10° WNW 07:36:29 40° SW 07:39:36 10° SSE daylight
28 Sep - 22:38:11 10° S 22:40:30 18° SE 22:42:49 10° E night (unlit)
29 Sep - 00:13:47 10° WSW 00:16:57 41° NW 00:20:08 10° NE night (unlit)
29 Sep - 01:53:51 10° NNW 01:54:22 10° NNW 01:54:54 10° N night (unlit)
29 Sep - 05:08:14 10° NNW 05:10:20 16° NNE 05:12:26 10° ENE visible
29 Sep - 06:44:04 10° NW 06:47:23 81° SW 06:50:42 10° SE visible
29 Sep - 23:24:25 10° SW 23:27:45 76° NW 23:31:04 10° NE night (unlit)
30 Sep - 01:03:08 10° NW 01:04:54 14° NNW 01:06:40 10° N night (unlit)
30 Sep - 04:19:40 10° N 04:20:53 12° NNE 04:22:06 10° NE visible
30 Sep - 05:54:56 10° NW 05:58:12 53° NE 06:01:26 10° ESE visible
30 Sep - 07:32:49 10° W 07:34:32 14° SW 07:36:15 10° SSW daylight
30 Sep - 22:35:19 10° SW 22:38:33 55° SE 22:41:49 10° ENE night (unlit)
